Regional Weather Roundup
Issued by NWS

Home | Current Version | Previous Version | Graphics & Text | Print | Product List | Glossary On
Versions: 1 2 3 4 5 6 7 8 9 10 11 12 13 14 15 16 17 18 19 20 21 22 23 24 25 26 27 28 29 30 31 32 33 34 35 36 37 38 39 40 41 42 43 44 45 46 47 48 49 50
000
ASUS45 KBOU 251007
RWRCO

WEATHER ROUNDUP FOR COLORADO
NATIONAL WEATHER SERVICE DENVER/BOULDER CO
400 AM MDT FRI JUL 25 2014

NOTE: "FAIR" INDICATES FEW OR NO CLOUDS BELOW 12000 FEET WITH NO
SIGNIFICANT WEATHER AND/OR OBSTRUCTIONS TO VISIBILITY.

COZ001>005-013-030-031-251100-
...NORTHWEST COLORADO...

CITY           SKY/WX    TMP DP  RH WIND       PRES   REMARKS
CRAIG          MOCLDY    56  56 100 E3        30.22S
HAYDEN         MOCLDY    61  52  72 SE6       30.23F
MEEKER         PTCLDY    55  51  86 CALM      30.22R
MOUNT WERNER   NOT AVBL
STEAMBOAT SPGS MOCLDY    62  49  60 N5        30.31R
WALDEN         CLEAR     50  41  71 CALM      30.34S
$$

COZ006>008-011-251100-
...WEST CENTRAL VALLEYS...

CITY           SKY/WX    TMP DP  RH WIND       PRES   REMARKS
GRAND JUNCTION MOCLDY    72  54  53 E13       30.11S
MONTROSE       PTCLDY    64  52  64 SE5       30.22S
EAGLE          MOCLDY    55  54  94 E6        30.32S
RIFLE          CLEAR     63  50  62 CALM      30.18R
DELTA          PTCLDY    69  54  58 E8        30.17S
NUCLA          PTCLDY    63  52  67 SE8       30.25S
$$

COZ017>023-064>068-251100-
...SOUTHWEST COLORADO...

CITY           SKY/WX    TMP DP  RH WIND       PRES   REMARKS
DURANGO        CLOUDY    66  50  56 W3        30.26F
CORTEZ         MOCLDY    68  51  54 CALM      30.21S
PAGOSA SPRINGS CLOUDY    62  49  62 CALM      30.35F
TELLURIDE      PTCLDY    54  50  87 SE7       30.46F
WOLF CREEK PAS NOT AVBL
$$

COZ009-010-012-014-032>034-037-058>063-251100-
...CENTRAL COLORADO...

CITY           SKY/WX    TMP DP  RH WIND       PRES   REMARKS
ASPEN          MOCLDY    53  47  79 CALM      30.35S
BUENA VISTA    CLOUDY    61  45  54 N6        30.35S
COPPER MTN     CLOUDY    54  37  54 S12       30.67S
BERTHOUD PASS  FAIR      45  32  61 NW16      30.69S
COTTONWOOD PAS CLOUDY    63  39  42 NW8G17    30.49S
GUNNISON       MOCLDY    54  46  76 N5        30.41S
KREMMLING      MOCLDY    54  45  71 SE3       30.35R
LEADVILLE      CLOUDY    46  41  82 N5        30.50F
MONARCH PASS   CLOUDY    48  41  76 W24       30.74F
SALIDA         CLOUDY   N/A N/A N/A CALM      30.38F
SUNLIGHT       PTCLDY    54  45  71 CALM      30.58S
WILKERSON PASS MOCLDY    52  37  58 W13G18    30.60S
$$

COZ069>075-251100-
...SAN LUIS VALLEY/SANGRE DE CRISTO MOUNTAINS...

CITY           SKY/WX    TMP DP  RH WIND       PRES   REMARKS
ALAMOSA        MOCLDY    60  53  77 E7        30.33F
LA VETA PASS   CLOUDY    54  43  66 SW13G25   30.48S
SAGUACHE       CLOUDY    55  52  88 CALM      30.38R
$$

COZ035-036-038>040-251100-
...NORTHERN COLORADO FRONT RANGE...

CITY           SKY/WX    TMP DP  RH WIND       PRES   REMARKS
DENVER INTL AP MOCLDY    72  49  44 SW8       30.05S
DMNS CITY PARK   N/A     71  50  46 S5        30.05S
AURORA         CLOUDY    69  51  52 S6        30.08F
FRONT RANGE AP NOT AVBL
ERIE MUNI ARPT MOCLDY    68  46  45 CALM      30.03S
BOULDER MUN AP MOCLDY    79  41  25 NW5       30.04S
CENTENNIAL     MOCLDY    68  49  50 S6        30.10S
BROOMFIELD     MOCLDY    75  45  33 CALM      30.07F
FORT COLLINS   PTCLDY    66  54  63 N7        30.04S
LONGMONT       PTCLDY    72  54  52 NE6       30.04S
$$

COZ041-046-047-076>085-087-088-251100-
...PIKES PEAK/PALMER DIVIDE AND SOUTHERN FOOTHILLS...

CITY           SKY/WX    TMP DP  RH WIND       PRES   REMARKS
COLO. SPRINGS  MOCLDY    64  52  64 N9        30.15S
A. F. ACADEMY  PTCLDY    62  52  71 NE5       30.17S
ELLICOTT       PTCLDY    63  51  65 NE3       30.12F
FALCON         PTCLDY    64  48  55 W9        30.20S
FORT CARSON    PTCLDY    64  51  62 NW8       30.11S
LIMON          MOCLDY    58  55  90 N5        30.06F
MONUMENT HILL  MOCLDY    63  46  55 SW9       30.20S
TRINIDAD       CLEAR     67  47  48 W10       30.14S
$$

COZ042>045-048>051-090-091-251100-
...NORTHEAST COLORADO...

CITY           SKY/WX    TMP DP  RH WIND       PRES   REMARKS
GREELEY ARPT   PTCLDY    63  52  67 CALM      30.02R
AKRON          PTCLDY    70  52  52 W13       29.98S
BURLINGTON     MOCLDY    69  54  58 NW7       29.95S
WRAY             N/A     66  57  71 W7        29.90R
STERLING       PTCLDY    64  61  88 S3        29.93S
HOLYOKE        PTCLDY    64  59  82 W6        29.89S
FORT MORGAN    PTCLDY    67  51  57 NW8       29.98S
$$

COZ086-089-092>099-251100-
...SOUTHEAST COLORADO...

CITY           SKY/WX    TMP DP  RH WIND       PRES   REMARKS
PUEBLO         CLEAR     76  49  38 W12       30.01F
LA JUNTA       PTCLDY    72  54  53 SW12      29.99R
LAMAR          MOCLDY    75  53  46 SW7       29.92R
SPRINGFIELD      N/A     71  49  45 S15       30.02F
$$



USA.gov is the U.S. government's official web portal to all federal, state and local government web resources and services.